EW2032 Garcillan ES current weather conditions

sailwx.info

Wind from 206 at 3 knots gusting 6

Air temperature 28.9° C
Dewpoint -0.4° C

Last reported at 2020-Aug-07 08:00 UTC.
Time now 2020-Aug-07 08:48 UTC

Location: N 40°59' W 004°16'.
View on Google Maps.

See reports from other nearby stations

  
Tides and Currents Weather Stations Pressure Air Temp Water Temp Dewpoint Dewpoint Depression Visibility Wind Speed Wind Dir Waves Ship Positions
date/time (UTC)wind fromknots sea level pressurealtimeterstation pressurevisibilityair tempwater tempwave heightnotes
2020-Aug-07 08:00 206 3 gusting 6 28.9
2020-Aug-07 07:45 215 0 gusting 3 29.4
2020-Aug-07 07:30 198 1 gusting 4 28.3
2020-Aug-07 07:15 203 1 gusting 4 27.2
2020-Aug-07 07:00 204 1 gusting 3 26.7
2020-Aug-07 06:45 205 3 gusting 6 26.1
2020-Aug-07 06:30 208 3 gusting 5 26.1
2020-Aug-07 06:15 209 0 gusting 5 25.6
2020-Aug-07 06:00 203 1 gusting 3 25.6
2020-Aug-07 05:45 201 0 gusting 4 25.0
2020-Aug-07 05:30 212 25.0
2020-Aug-07 05:15 214 0 gusting 3 25.0
2020-Aug-07 05:00 216 2 gusting 5 25.6
2020-Aug-07 04:45 211 25.0
2020-Aug-07 04:30 225 25.0
2020-Aug-07 04:15 214 0 gusting 3 25.0
2020-Aug-07 04:00 223 25.6
2020-Aug-07 03:45 218 0 gusting 2 26.1
2020-Aug-07 03:30 225 26.1
2020-Aug-07 03:15 25.6
2020-Aug-07 03:00 311 26.1
2020-Aug-07 02:45 225 25.6
2020-Aug-07 02:30 25.6
2020-Aug-07 02:15 236 26.7
2020-Aug-07 02:00 228 26.1
2020-Aug-07 01:45 25.6
2020-Aug-07 01:30 203 25.6
2020-Aug-07 01:15 24.4
2020-Aug-07 01:00 23.9
2020-Aug-07 00:45 23.3
2020-Aug-07 00:30 23.9
2020-Aug-07 00:15 24.4
2020-Aug-07 00:00 181 24.4
2020-Aug-06 23:45 225 24.4
2020-Aug-06 23:30 23.9
2020-Aug-06 23:15 225 24.4
2020-Aug-06 23:00 24.4
2020-Aug-06 22:45 25.0
2020-Aug-06 22:30 274 25.6
2020-Aug-06 22:15 270 25.6
2020-Aug-06 22:00 270 25.6
2020-Aug-06 21:45 26.1
2020-Aug-06 21:30 26.7
2020-Aug-06 21:15 219 27.8
2020-Aug-06 21:00 219 27.8
2020-Aug-06 20:45 215 28.3
2020-Aug-06 20:30 208 28.3
2020-Aug-06 20:15 227 28.9
2020-Aug-06 20:00 202 0 gusting 3 30.0
2020-Aug-06 19:45 219 1 gusting 3 30.6
2020-Aug-06 19:30 219 0 gusting 3 31.1
2020-Aug-06 19:15 224 0 gusting 3 31.7
2020-Aug-06 19:00 204 0 gusting 4 32.8
2020-Aug-06 18:45 210 2 gusting 4 33.3
2020-Aug-06 18:30 227 0 gusting 3 33.3
2020-Aug-06 18:15 211 2 gusting 4 33.9
2020-Aug-06 18:00 193 1 gusting 4 33.9
2020-Aug-06 17:45 208 1 gusting 5 34.4
2020-Aug-06 17:30 217 1 gusting 5 34.4
2020-Aug-06 17:15 218 1 gusting 4 34.4
2020-Aug-06 17:00 215 0 gusting 5 35.0
2020-Aug-06 16:45 203 0 gusting 5 35.0
2020-Aug-06 16:30 204 2 gusting 6 35.0
2020-Aug-06 16:15 219 2 gusting 6 35.6
2020-Aug-06 16:00 214 1 gusting 6 36.1
2020-Aug-06 15:45 208 1 gusting 5 37.2
2020-Aug-06 15:30 222 2 gusting 6 37.2
2020-Aug-06 15:15 263 1 gusting 6 37.8
2020-Aug-06 15:00 198 2 gusting 6 37.8
2020-Aug-06 14:45 185 2 gusting 6 36.7
2020-Aug-06 14:30 214 2 gusting 7 36.7
2020-Aug-06 14:15 213 2 gusting 6 37.2
2020-Aug-06 14:00 207 2 gusting 6 36.7
2020-Aug-06 13:45 227 3 gusting 6 36.1
2020-Aug-06 13:30 226 1 gusting 6 36.1
2020-Aug-06 13:15 216 1 gusting 6 35.0
2020-Aug-06 13:00 208 1 gusting 5 36.1
2020-Aug-06 12:45 207 1 gusting 6 36.7
2020-Aug-06 12:30 207 1 gusting 5 36.7
2020-Aug-06 12:15 206 2 gusting 6 36.1
2020-Aug-06 12:00 218 3 gusting 6 36.1
2020-Aug-06 11:45 222 2 gusting 5 36.7
2020-Aug-06 11:30 216 3 gusting 6 35.6
2020-Aug-06 11:15 207 2 gusting 6 35.6
2020-Aug-06 11:00 211 2 gusting 6 35.0
2020-Aug-06 10:45 215 2 gusting 5 35.0
2020-Aug-06 10:30 188 1 gusting 5 35.6
2020-Aug-06 10:15 220 1 gusting 4 35.0
2020-Aug-06 10:00 215 2 gusting 5 34.4
2020-Aug-06 09:45 225 35.6
2020-Aug-06 09:30 35.0
2020-Aug-06 09:15 33.9
2020-Aug-06 09:00 33.3
2020-Aug-06 08:45 32.2
2020-Aug-06 08:30 30.6
2020-Aug-06 08:15 28.9
2020-Aug-06 08:00 27.8
2020-Aug-06 07:45 26.1
2020-Aug-06 07:30 26.7
2020-Aug-06 07:15 23.9
2020-Aug-06 07:00 21.7
2020-Aug-06 06:45 21.7
2020-Aug-06 06:30 21.1
2020-Aug-06 06:15 20.0
2020-Aug-06 06:00 19.4
2020-Aug-06 05:45 18.9
2020-Aug-06 05:30 18.9
2020-Aug-06 05:15 18.9
2020-Aug-06 05:00 18.9
2020-Aug-06 04:45 18.9
2020-Aug-06 04:30 18.3
2020-Aug-06 04:15 18.9
2020-Aug-06 04:00 19.4
2020-Aug-06 03:45 18.9
2020-Aug-06 03:30 18.9
2020-Aug-06 03:15 203 18.9
2020-Aug-06 03:00 19.4
2020-Aug-06 02:45 218 20.6
2020-Aug-06 02:30 20.0
2020-Aug-06 02:15 225 19.4
2020-Aug-06 02:00 19.4
2020-Aug-06 01:45 19.4
2020-Aug-06 01:30 225 20.0
2020-Aug-06 01:15 20.6
2020-Aug-06 01:00 20.6
2020-Aug-06 00:45 21.1
2020-Aug-06 00:30 225 21.1
2020-Aug-06 00:15 21.1
2020-Aug-06 00:00 21.1
2020-Aug-05 23:45 21.1
2020-Aug-05 23:30 21.7
2020-Aug-05 23:15 21.7
2020-Aug-05 23:00 22.2
2020-Aug-05 22:45 22.8
2020-Aug-05 22:30 23.3
2020-Aug-05 22:15 23.9
2020-Aug-05 22:00 24.4
2020-Aug-05 21:45 24.4
2020-Aug-05 21:30 24.4
2020-Aug-05 21:15 24.4
2020-Aug-05 21:00 25.0
2020-Aug-05 20:45 25.6
2020-Aug-05 20:30 26.1
2020-Aug-05 20:15 26.7
2020-Aug-05 20:00 27.8
2020-Aug-05 19:45 28.3
2020-Aug-05 19:30 29.4
2020-Aug-05 19:15 30.0
2020-Aug-05 19:00 292 30.6
2020-Aug-05 18:45 31.1
2020-Aug-05 18:30 270 31.7
2020-Aug-05 18:15 31.7
2020-Aug-05 18:00 270 32.2
2020-Aug-05 17:45 276 32.2
2020-Aug-05 17:30 321 32.2
2020-Aug-05 17:15 270 32.8
2020-Aug-05 17:00 32.8
2020-Aug-05 16:45 33.3
2020-Aug-05 16:30 294 33.3
2020-Aug-05 16:15 307 33.9
2020-Aug-05 16:00 311 34.4
2020-Aug-05 15:45 270 36.1
2020-Aug-05 15:30 181 0 gusting 3 35.0
2020-Aug-05 15:15 35.6
2020-Aug-05 15:00 35.6
2020-Aug-05 14:45 301 36.1
2020-Aug-05 14:30 299 36.1
2020-Aug-05 14:15 35.0
2020-Aug-05 14:00 181 0 gusting 5 34.4
2020-Aug-05 13:45 35.0
2020-Aug-05 13:30 185 0 gusting 4 34.4
2020-Aug-05 13:15 35.0
2020-Aug-05 13:00 181 0 gusting 5 33.9
2020-Aug-05 12:45 181 0 gusting 4 33.3
2020-Aug-05 12:30 33.9
2020-Aug-05 12:15 204 32.8
2020-Aug-05 12:00 341 33.9
2020-Aug-05 11:45 33.9
2020-Aug-05 11:30 326 33.3
2020-Aug-05 11:15 292 32.2
2020-Aug-05 11:00 32.2
2020-Aug-05 10:45 31.7
2020-Aug-05 10:30 300 31.7
2020-Aug-05 10:15 31.7
2020-Aug-05 10:00 31.1
2020-Aug-05 09:45 30.6
2020-Aug-05 09:30 30.6
2020-Aug-05 09:15 30.0
2020-Aug-05 09:00 329 29.4
2020-Aug-05 08:45 29.4
2020-Aug-05 08:30 28.3
2020-Aug-05 08:15 27.2
2020-Aug-05 08:00 26.7